Location: *
(6.0000°S, 32.3997°W)
Time: 19:51:32
(UTC+00:00)

YAOGAN 1 - Pass Details

Date: 01 April 2020
Orbit: 618 x 620 km, 97.9° (Epoch: 28 May)

Event Time Altitude Azimuth Distance (km) Brightness Sun altitude
Rises 20:51:16 0° 156° (SSE) 2,896 5.7 -9.9°
Reaches altitude 10° 20:53:33 10° 149° (SSE) 1,987 4.8 -10.5°
Maximum altitude 20:57:37 40° 79° (E) 918 3.0 -11.5°
Drops below altitude 10° 21:01:38 10° 9° (N) 1,975 5.1 -12.5°
Sets 21:03:55 0° 2° (N) 2,877 6.0 -13.1°
